Broken Bow, NE

1:56 AM CDT on May 27, 2017 (GMT -0500)
Broken Bow Municipal

Weather History for KBBW - December, 2013

Change the Weather History Date:

Tuesday, December 17, 2013

  Actual Average Record
Temperature  
Mean Temperature 35 °F 25 °F  
Max Temperature 46 °F 37 °F 71 °F (1980)
Min Temperature 24 °F 13 °F -13 °F (1964)
Degree Days  
Heating Degree Days 30 40  
Month to date heating degree days 733 661  
Cooling Degree Days 0 0  
Month to date cooling degree days 0 0  
Year to date cooling degree days 814 768  
Moisture  
Dew Point 22 °F    
Average Humidity 60    
Maximum Humidity 88    
Minimum Humidity 31    
Precipitation  
Precipitation 0.00 in 0.01 in 0.46 in (1977)
Sea Level Pressure  
Sea Level Pressure 30.22 in    
Wind  
Wind Speed 10 mph (West)    
Max Wind Speed 21 mph    
Max Gust Speed 33 mph    
Visibility 10 miles    
Events      
T = Trace of Precipitation, MM = Missing Value Source: NWS Daily Summary

Daily Weather History Graph

Daily Weather History Graph

Search for Another Location

Airport or City:

Trip Planner

Search our weather history database for the weather conditions in past years. The results will help you decide how hot, cold, wet, or windy it might be!

Date:

Astronomy

Dec. 17, 2013 Rise Set
Actual Time 7:59 AM CST 5:10 PM CST
Civil Twilight 7:27 AM CST 5:41 PM CST
Nautical Twilight 6:52 AM CST 6:16 PM CST
Astronomical Twilight 6:19 AM CST 6:50 PM CST
Moon 5:52 PM CST (12/17) 7:56 AM CST (12/17)
Length of Visible Light 10h 13m
Length of Day
9h 11m
Full, 100% of the Moon is Illuminated
Dec 17
Full
Dec 25
Last Quarter
Jan 1
New
Jan 7
First Quarter
Jan 15
Full

Hourly Weather History & Observations

Time (CST) Temp. Windchill Dew Point Humidity Pressure Visibility Wind Dir Wind Speed Gust Speed Precip Events Conditions
12:53 AM 24.1 °F - 21.9 °F 91% 30.20 in 10.0 mi Calm Calm - N/A   Clear
1:53 AM 30.9 °F 22.2 °F 25.0 °F 79% 30.18 in 10.0 mi West 10.4 mph - N/A   Clear
2:53 AM 35.1 °F 26.4 °F 26.1 °F 70% 30.19 in 10.0 mi West 12.7 mph - N/A   Clear
3:53 AM 33.1 °F 23.9 °F 25.0 °F 72% 30.21 in 10.0 mi West 12.7 mph - N/A   Clear
4:53 AM 35.1 °F 24.1 °F 24.1 °F 64% 30.23 in 10.0 mi WNW 19.6 mph - N/A   Clear
5:53 AM 36.0 °F 25.6 °F 23.0 °F 59% 30.27 in 10.0 mi NW 18.4 mph 26.5 mph N/A   Clear
6:53 AM 34.0 °F 23.8 °F 24.1 °F 67% 30.32 in 10.0 mi NW 16.1 mph - N/A   Clear
7:53 AM 30.9 °F 20.7 °F 24.1 °F 76% 30.35 in 10.0 mi NNW 13.8 mph - N/A   Clear
8:53 AM 32.0 °F 22.5 °F 23.0 °F 69% 30.38 in 10.0 mi NNW 12.7 mph - N/A   Clear
9:53 AM 36.0 °F 27.1 °F 21.9 °F 57% 30.38 in 10.0 mi NW 13.8 mph - N/A   Clear
10:53 AM 39.0 °F 31.0 °F 19.0 °F 45% 30.39 in 10.0 mi NNW 13.8 mph 18.4 mph N/A   Clear
11:53 AM 42.1 °F 36.1 °F 18.0 °F 38% 30.35 in 10.0 mi NNW 10.4 mph - N/A   Clear
12:53 PM 44.1 °F 39.0 °F 16.0 °F 32% 30.30 in 10.0 mi NNW 9.2 mph - N/A   Clear
1:53 PM 45.0 °F 42.6 °F 17.1 °F 33% 30.27 in 10.0 mi WNW 4.6 mph - N/A   Clear
2:53 PM 46.0 °F 44.8 °F 18.0 °F 33% 30.23 in 10.0 mi WSW 3.5 mph - N/A   Clear
3:53 PM 45.0 °F 39.7 °F 19.9 °F 37% 30.22 in 10.0 mi SW 10.4 mph - N/A   Clear
4:53 PM 42.1 °F 36.1 °F 21.9 °F 45% 30.19 in 10.0 mi SSW 10.4 mph - N/A   Clear
5:53 PM 34.0 °F 27.2 °F 21.0 °F 59% 30.17 in 10.0 mi South 8.1 mph - N/A   Clear
6:53 PM 34.0 °F 27.2 °F 21.9 °F 61% 30.15 in 10.0 mi South 8.1 mph - N/A   Clear
7:53 PM 34.0 °F 26.0 °F 23.0 °F 64% 30.14 in 10.0 mi South 10.4 mph - N/A   Clear
8:53 PM 34.0 °F 31.0 °F 21.9 °F 61% 30.10 in 10.0 mi South 3.5 mph - N/A   Clear
9:53 PM 32.0 °F 25.6 °F 21.0 °F 64% 30.07 in 10.0 mi South 6.9 mph - N/A   Clear
10:53 PM 30.0 °F 25.2 °F 21.0 °F 69% 30.04 in 10.0 mi SSW 4.6 mph - N/A   Clear
11:53 PM 30.0 °F 23.2 °F 19.0 °F 64% 30.01 in 10.0 mi SW 6.9 mph - N/A   Clear